User: anonymous   Login
Location: Ostrava
(49.8330°N, 18.2830°E)
Time: 01:56:50
(UTC+02:00)
Language:

Cosmos 1263 Rocket - Orbit

View from above orbital plane
View from above orbital plane
View from above satellite
View from above satellite

Ground track
Ground track

The orbit data is extracted from the following two-line orbital elements,

1 12389U 81033B   15147.57261442  .00139866  55672-5  43617-3 0  9994
2 12389 082.8519 125.7483 0064750 277.3351 203.8345 15.87877071763123
Epoch (UTC): 27 May 2015 13:44:33
Eccentricity: 0.0064750
inclination: 82.8519°
perigee height: 265 km
apogee height: 351 km
right ascension of ascending node: 125.7483°
argument of perigee: 277.3351°
revolutions per day: 15.87877071
mean anomaly at epoch: 203.8345°
orbit number at epoch: 76312

The dashed part of the orbit path shows where the satellite is in the earth's shadow,  

DLR